"Timestamp","TZ","WindDir_Mean (deg)","WindSpd_Mean (km/h)","WindSpd_Min (km/h)","WindSpd_Max (km/h)","Temp_Mean (deg)","RH_Mean (%)","MSLP_Mean (hPa)","Rain_Acc (mm)","Rain_Intensity (mm/h)","Hail_Acc (hits/cm2)","Hail_Intensity (hits/cm2hr)","Solar_Mean (W/m2)"
2018/06/23 00:00:00.005,n,146,2.16,1.8,2.52,12.6,76.2,1026.52,0,0,0,0,0.027008
2018/06/23 00:01:00.002,n,146,5.04,4.68,5.04,12.5,76.1,1026.52,0,0,0,0,0.027885
2018/06/23 00:02:00.000,n,156,5.4,5.04,6.12,12.5,76.1,1026.52,0,0,0,0,0.027885
2018/06/23 00:03:00.000,n,165,7.92,7.2,9,12.5,76.2,1026.52,0,0,0,0,0.027008
2018/06/23 00:04:00.000,n,168,6.12,4.68,7.2,12.5,76.2,1026.42,0,0,0,0,0.022659
2018/06/23 00:05:00.006,n,276,0.72,0.36,0.72,12.5,76.2,1026.42,0,0,0,0,0.022659
2018/06/23 00:06:00.003,n,326,1.8,1.08,2.16,12.6,76.2,1026.42,0,0,0,0,0.027008
2018/06/23 00:07:00.001,n,251,1.8,1.44,2.16,12.6,75.9,1026.42,0,0,0,0,0.024376
2018/06/23 00:08:00.000,n,117,1.44,1.08,2.16,12.5,75.8,1026.42,0,0,0,0,0.026131
2018/06/23 00:09:00.012,n,150,2.88,2.52,3.6,12.5,75.7,1026.42,0,0,0,0,0.030479
2018/06/23 00:10:00.000,n,159,5.4,5.04,5.4,12.5,75.6,1026.42,0,0,0,0,0.027008
2018/06/23 00:11:00.000,n,161,3.96,3.24,4.68,12.5,75.5,1026.42,0,0,0,0,0.032234
2018/06/23 00:12:00.003,n,205,0.72,0.36,0.72,12.5,75.5,1026.42,0,0,0,0,0.031357
2018/06/23 00:13:00.000,n,122,1.08,0,2.88,12.5,75.5,1026.42,0,0,0,0,0.025253
2018/06/23 00:14:00.000,n,141,2.16,1.44,2.16,12.4,75.6,1026.42,0,0,0,0,0.022659
2018/06/23 00:15:00.010,n,177,1.8,1.8,1.8,12.4,75.8,1026.32,0,0,0,0,0.022659
2018/06/23 00:16:00.008,n,270,1.44,1.08,2.16,12.4,75.7,1026.32,0,0,0,0,0.025253
2018/06/23 00:17:00.005,n,134,6.84,6.48,7.2,12.4,75.7,1026.32,0,0,0,0,0.024376
2018/06/23 00:18:00.003,n,119,7.56,7.2,8.28,12.4,76,1026.32,0,0,0,0,0.023537
2018/06/23 00:19:00.000,n,163,4.68,4.32,5.4,12.4,76.2,1026.32,0,0,0,0,0.026131
2018/06/23 00:20:00.000,n,169,6.12,5.76,6.12,12.3,76.2,1026.32,0,0,0,0,0.023537
2018/06/23 00:21:00.000,n,169,9,8.64,9.72,12.3,76.3,1026.32,0,0,0,0,0.020905
2018/06/23 00:22:00.000,n,165,5.04,4.68,5.76,12.3,76.6,1026.32,0,0,0,0,0.020905
2018/06/23 00:23:00.000,n,85,0.72,0.36,1.08,12.2,76.6,1026.22,0,0,0,0,0.024376
2018/06/23 00:24:00.006,n,139,4.32,3.6,5.4,12.2,76.8,1026.32,0,0,0,0,0.024376
2018/06/23 00:25:00.003,n,155,7.2,6.48,7.92,12.2,76.7,1026.32,0,0,0,0,0.021782
2018/06/23 00:26:00.001,n,150,9.36,9,10.08,12.2,77.2,1026.32,0,0,0,0,0.020905
2018/06/23 00:27:00.014,n,142,3.96,3.24,4.68,12.2,77.1,1026.22,0,0,0,0,0.033073
2018/06/23 00:28:00.000,n,305,2.16,2.16,2.52,12.2,77,1026.22,0,0,0,0,0.023537
2018/06/23 00:29:00.000,n,238,5.4,4.32,5.76,12.2,77,1026.22,0,0,0,0,0.020027
2018/06/23 00:30:00.000,n,262,5.4,2.52,7.56,12.2,76.6,1026.22,0,0,0,0,0.021782
2018/06/23 00:31:00.003,n,266,2.88,1.44,3.96,12.2,76.5,1026.22,0,0,0,0,0.023537
2018/06/23 00:32:00.000,n,103,3.6,3.24,4.68,12.2,76.9,1026.22,0,0,0,0,0.023537
2018/06/23 00:33:00.000,n,132,9.72,9,10.08,12.3,76.4,1026.22,0,0,0,0,0.017395
2018/06/23 00:34:00.011,n,146,10.440002,9.72,10.8,12.2,76.6,1026.22,0,0,0,0,0.025253
2018/06/23 00:35:00.008,n,190,6.84,5.76,7.56,12.2,76.8,1026.12,0,0,0,0,0.025253
2018/06/23 00:36:00.005,n,202,4.68,3.96,5.4,12.1,76.9,1026.12,0,0,0,0,0.024376
2018/06/23 00:37:00.002,n,268,9.72,7.2,12.6,12.1,76.4,1026.02,0,0,0,0,0.018311
2018/06/23 00:38:00.000,n,247,6.12,5.4,7.2,12.1,76.2,1026.02,0,0,0,0,0.022659
2018/06/23 00:39:00.000,n,136,2.88,2.16,3.6,12.2,76.2,1026.02,0,0,0,0,0.01915
2018/06/23 00:40:00.000,n,147,9.72,7.92,10.440002,12.2,76.1,1026.12,0,0,0,0,0.022659
2018/06/23 00:41:00.007,n,134,6.12,5.4,7.2,12.2,76.2,1026.12,0,0,0,0,0.027885
2018/06/23 00:42:00.001,n,172,2.16,1.44,2.88,12.2,76.4,1026.12,0,0,0,0,0.028725
2018/06/23 00:43:00.000,n,261,2.16,1.44,2.88,12.2,76.6,1026.02,0,0,0,0,0.027885
2018/06/23 00:44:00.012,n,147,2.52,1.8,3.24,12.2,76.6,1026.02,0,0,0,0,0.028725
2018/06/23 00:45:00.009,n,159,6.84,5.76,7.92,12.1,76.7,1026.12,0,0,0,0,0.031357
2018/06/23 00:46:00.000,n,152,5.04,3.6,7.92,12.1,76.7,1026.12,0,0,0,0,0.033112
2018/06/23 00:47:00.002,n,149,6.48,5.4,7.56,12.1,76.8,1026.12,0,0,0,0,0.031357
2018/06/23 00:48:00.000,n,166,6.12,5.4,6.48,12.1,76.9,1026.12,0,0,0,0,0.027008
2018/06/23 00:49:00.000,n,149,6.12,5.76,6.48,12.1,76.9,1026.12,0,0,0,0,0.034866
2018/06/23 00:50:00.000,n,172,9.36,8.28,10.440002,12.1,76.9,1026.12,0,0,0,0,0.027008
2018/06/23 00:51:00.007,n,166,5.76,4.68,6.84,12.1,76.9,1026.12,0,0,0,0,0.026169
2018/06/23 00:52:00.004,n,127,2.52,2.16,3.24,12.1,77,1026.12,0,0,0,0,0.027885
2018/06/23 00:53:00.001,n,145,5.04,4.32,5.76,12.1,77.1,1026.12,0,0,0,0,0.028725
2018/06/23 00:54:00.015,n,144,7.92,6.84,9.72,12.1,76.9,1026.12,0,0,0,0,0.025291
2018/06/23 00:55:00.000,n,113,4.68,3.24,7.2,12,77.2,1026.12,0,0,0,0,0.030518
2018/06/23 00:56:00.000,n,160,6.84,6.48,7.2,12,77.3,1026.02,0,0,0,0,0.028725
2018/06/23 00:57:00.000,n,204,4.32,3.24,6.12,11.9,77.4,1026.02,0,0,0,0,0.027885
2018/06/23 00:58:00.002,n,227,8.28,6.84,9,11.9,77.2,1025.92,0,0,0,0,0.024376
2018/06/23 00:59:00.000,n,226,5.4,5.04,5.76,11.9,77.1,1025.92,0,0,0,0,0.027008
2018/06/23 01:00:00.000,n,246,3.96,2.52,4.68,11.9,77,1026.02,0,0,0,0,0.027008
2018/06/23 01:01:00.011,n,146,6.84,5.4,7.2,12,77,1026.02,0,0,0,0,0.025291
2018/06/23 01:02:00.008,n,137,5.76,4.68,6.84,12,76.7,1026.02,0,0,0,0,0.023537
2018/06/23 01:03:00.005,n,157,2.88,1.44,5.04,12,76.5,1026.02,0,0,0,0,0.025291
2018/06/23 01:04:00.002,n,165,9,8.28,9.72,12,76.5,1026.02,0,0,0,0,0.027885
2018/06/23 01:05:00.000,n,220,3.6,2.88,3.96,12,76.5,1026.02,0,0,0,0,0.026169
2018/06/23 01:06:00.000,n,270,2.52,1.44,2.88,12,76.5,1026.02,0,0,0,0,0.026169
2018/06/23 01:07:00.000,n,168,5.76,4.68,7.2,12.1,76.5,1026.02,0,0,0,0,0.02964
2018/06/23 01:08:00.006,n,288,1.8,0.36,2.52,12.1,76.3,1026.02,0,0,0,0,0.027008
2018/06/23 01:09:00.003,n,172,3.24,2.16,3.96,12.1,76.4,1026.02,0,0,0,0,0.026169
2018/06/23 01:10:00.000,n,163,1.44,0,3.6,12.1,76.2,1025.92,0,0,0,0,0.026169
2018/06/23 01:11:00.013,n,144,2.88,2.16,3.6,12.1,76.2,1025.92,0,0,0,0,0.023537
2018/06/23 01:12:00.010,n,147,5.76,5.04,6.12,12.1,76.1,1025.92,0,0,0,0,0.027885
2018/06/23 01:13:00.000,n,154,5.04,3.96,6.12,12.1,76.2,1025.92,0,0,0,0,0.025291
2018/06/23 01:14:00.000,n,146,4.32,3.96,4.68,12,76.2,1025.92,0,0,0,0,0.025291
2018/06/23 01:15:00.001,n,144,2.52,0.72,4.32,12,76.3,1025.92,0,0,0,0,0.026169
2018/06/23 01:16:00.000,n,145,4.68,2.16,5.76,12,76.4,1025.92,0,0,0,0,0.024376
2018/06/23 01:17:00.000,n,169,5.04,3.96,5.76,11.9,76.6,1025.92,0,0,0,0,0.023537
2018/06/23 01:18:00.010,n,149,3.24,1.8,3.96,11.9,76.7,1025.92,0,0,0,0,0.030518
2018/06/23 01:19:00.007,n,161,6.12,5.4,7.56,11.9,76.8,1025.92,0,0,0,0,0.025291
2018/06/23 01:20:00.004,n,156,5.04,2.52,6.84,11.9,76.6,1025.92,0,0,0,0,0.021782
2018/06/23 01:21:00.002,n,166,7.2,6.12,7.92,11.9,76.6,1025.92,0,0,0,0,0.021782
2018/06/23 01:22:00.000,n,172,5.76,4.68,6.12,11.8,76.5,1025.92,0,0,0,0,0.024376
2018/06/23 01:23:00.000,n,185,6.48,5.4,7.2,11.8,76.7,1025.92,0,0,0,0,0.020027
2018/06/23 01:24:00.000,n,290,3.96,3.24,4.68,11.8,76.8,1025.92,0,0,0,0,0.020027
2018/06/23 01:25:00.006,n,230,1.44,0.72,2.16,11.8,76.8,1025.92,0,0,0,0,0.020027
2018/06/23 01:26:00.003,n,114,3.24,2.52,5.76,11.8,76.9,1025.92,0,0,0,0,0.025253
2018/06/23 01:27:00.000,n,157,3.96,3.96,4.68,11.8,76.8,1025.92,0,0,0,0,0.033951
2018/06/23 01:28:00.011,n,157,3.96,1.44,6.12,11.8,76.5,1025.92,0,0,0,0,0.029602
2018/06/23 01:29:00.009,n,159,6.48,4.32,7.56,11.8,76.6,1025.92,0,0,0,0,0.029602
2018/06/23 01:30:00.005,n,297,1.8,1.08,2.52,11.8,76.6,1025.92,0,0,0,0,0.028725
2018/06/23 01:31:00.002,n,244,3.6,3.24,4.68,11.8,76.5,1025.92,0,0,0,0,0.028725
2018/06/23 01:32:00.000,n,275,0.72,0.36,1.44,11.8,76.5,1025.92,0,0,0,0,0.027008
2018/06/23 01:33:00.000,n,154,6.48,5.4,9.36,11.8,76.4,1025.92,0,0,0,0,0.033951
2018/06/23 01:34:00.000,n,149,6.48,6.12,6.84,11.8,76.3,1025.92,0,0,0,0,0.033073
2018/06/23 01:35:00.005,n,186,5.76,4.68,6.84,11.8,76.4,1025.92,0,0,0,0,0.030441
2018/06/23 01:36:00.003,n,261,5.76,5.04,6.12,11.8,76.4,1025.82,0,0,0,0,0.026093
2018/06/23 01:37:00.000,n,246,2.52,1.8,3.6,11.8,76.2,1025.82,0,0,0,0,0.029602
2018/06/23 01:38:00.013,n,159,8.28,7.56,8.64,11.8,76.4,1025.82,0,0,0,0,0.031357
2018/06/23 01:39:00.010,n,155,6.12,5.76,6.48,11.8,76.1,1025.82,0,0,0,0,0.029602
2018/06/23 01:40:00.000,n,193,4.68,3.24,5.76,11.8,76.2,1025.82,0,0,0,0,0.027847
2018/06/23 01:41:00.003,n,307,3.24,2.52,3.96,11.8,76.1,1025.82,0,0,0,0,0.024376
2018/06/23 01:42:00.000,n,276,2.52,2.16,3.24,11.9,76,1025.82,0,0,0,0,0.027008
2018/06/23 01:43:00.000,n,107,3.6,2.88,4.32,11.9,76.1,1025.82,0,0,0,0,0.030441
2018/06/23 01:44:00.000,n,143,4.32,3.96,5.4,11.9,76.1,1025.82,0,0,0,0,0.028725
2018/06/23 01:45:00.008,n,122,4.68,3.6,6.48,11.9,75.9,1025.82,0,0,0,0,0.027847
2018/06/23 01:46:00.005,n,93,1.8,1.8,2.16,11.9,75.9,1025.72,0,0,0,0,0.025253
2018/06/23 01:47:00.002,n,70,2.52,0.72,3.6,11.9,76.1,1025.72,0,0,0,0,0.026093
2018/06/23 01:48:00.001,n,130,2.88,2.16,3.24,12,75.8,1025.72,0,0,0,0,0.028725
2018/06/23 01:49:00.000,n,146,6.84,5.76,8.64,11.9,75.6,1025.82,0,0,0,0,0.025253
2018/06/23 01:50:00.000,n,131,4.32,1.8,6.48,11.9,75.8,1025.82,0,0,0,0,0.033951
2018/06/23 01:51:00.000,n,184,2.88,1.44,3.96,11.8,75.9,1025.82,0,0,0,0,0.032234
2018/06/23 01:52:00.006,n,157,3.96,2.88,5.76,11.8,76,1025.72,0,0,0,0,0.028725
2018/06/23 01:53:00.003,n,182,8.64,7.2,9.72,11.8,76.1,1025.72,0,0,0,0,0.028725
2018/06/23 01:54:00.000,n,147,5.4,2.88,6.12,11.8,76.1,1025.82,0,0,0,0,0.030441
2018/06/23 01:55:00.013,n,169,7.2,6.48,7.92,11.8,76.4,1025.82,0,0,0,0,0.027008
2018/06/23 01:56:00.010,n,136,6.48,3.24,7.92,11.8,76.4,1025.82,0,0,0,0,0.025253
2018/06/23 01:57:00.006,n,155,4.68,2.88,6.48,11.7,76.5,1025.82,0,0,0,0,0.026093
2018/06/23 01:58:00.000,n,230,1.8,1.44,2.16,11.7,76.5,1025.82,0,0,0,0,0.025253
2018/06/23 01:59:00.000,n,136,5.04,3.6,5.4,11.7,76.5,1025.82,0,0,0,0,0.026093
2018/06/23 02:00:00.000,n,172,4.68,3.96,5.04,11.7,76.5,1025.82,0,0,0,0,0.024376
2018/06/23 02:01:00.000,n,158,2.52,2.16,3.96,11.7,76.5,1025.82,0,0,0,0,0.025253
2018/06/23 02:02:00.008,n,147,6.12,5.04,7.56,11.7,76.5,1025.72,0,0,0,0,0.022621
2018/06/23 02:03:00.005,n,165,5.76,4.68,7.2,11.7,76.4,1025.72,0,0,0,0,0.022621
2018/06/23 02:04:00.001,n,152,2.52,1.8,2.52,11.7,76.5,1025.72,0,0,0,0,0.024376
2018/06/23 02:05:00.000,n,247,1.08,0.36,1.44,11.7,76.5,1025.72,0,0,0,0,0.021744
2018/06/23 02:06:00.015,n,247,2.16,1.44,2.88,11.7,76.5,1025.72,0,0,0,0,0.024376
2018/06/23 02:07:00.000,n,307,2.52,1.44,3.6,11.7,76.5,1025.72,0,0,0,0,0.027008
2018/06/23 02:08:00.000,n,112,1.44,0.36,2.52,11.7,76.8,1025.72,0,0,0,0,0.027847
2018/06/23 02:09:00.000,n,159,5.04,3.96,6.12,11.7,76.5,1025.72,0,0,0,0,0.028725
2018/06/23 02:10:00.002,n,157,7.2,6.84,7.56,11.7,76.4,1025.72,0,0,0,0,0.022621
2018/06/23 02:11:00.000,n,220,2.16,1.44,2.88,11.7,76.3,1025.72,0,0,0,0,0.021744
2018/06/23 02:12:00.000,n,203,1.8,1.08,2.16,11.7,76.3,1025.72,0,0,0,0,0.026093
2018/06/23 02:13:00.009,n,175,2.52,1.44,3.24,11.7,76.3,1025.72,0,0,0,0,0.021744
2018/06/23 02:14:00.006,n,233,1.44,1.08,1.8,11.7,76.3,1025.72,0,0,0,0,0.024376
2018/06/23 02:15:00.004,n,168,5.4,3.6,6.12,11.7,76.4,1025.62,0,0,0,0,0.020027
2018/06/23 02:16:00.001,n,132,1.8,1.44,2.52,11.7,76.3,1025.62,0,0,0,0,0.025253
2018/06/23 02:17:00.000,n,110,2.16,1.8,2.88,11.7,76.3,1025.62,0,0,0,0,0.023499
2018/06/23 02:18:00.000,n,146,3.6,1.8,4.32,11.6,76.3,1025.62,0,0,0,0,0.01915
2018/06/23 02:19:00.000,n,123,3.6,1.8,5.04,11.6,76.3,1025.62,0,0,0,0,0.020905
2018/06/23 02:20:00.007,n,207,2.16,1.08,2.88,11.6,76.3,1025.62,0,0,0,0,0.021744
2018/06/23 02:21:00.005,n,184,2.52,1.08,3.24,11.6,76.3,1025.62,0,0,0,0,0.024376
2018/06/23 02:22:00.001,n,134,4.32,3.6,4.68,11.6,76.5,1025.52,0,0,0,0,0.021744
2018/06/23 02:23:00.000,n,224,2.52,2.16,3.24,11.6,76.4,1025.62,0,0,0,0,0.018272
2018/06/23 02:24:00.011,n,118,2.88,1.44,4.32,11.6,76.5,1025.62,0,0,0,0,0.022621
2018/06/23 02:25:00.000,n,161,5.04,4.32,5.76,11.6,76.3,1025.62,0,0,0,0,0.020027
2018/06/23 02:26:00.000,n,192,1.44,1.08,2.16,11.6,76.2,1025.62,0,0,0,0,0.01915
2018/06/23 02:27:00.003,n,128,1.8,1.44,2.16,11.6,76.2,1025.62,0,0,0,0,0.021744
2018/06/23 02:28:00.000,n,61,2.88,2.16,3.6,11.5,76.2,1025.52,0,0,0,0,0.021744
2018/06/23 02:29:00.000,n,122,3.6,1.44,4.32,11.5,76.4,1025.52,0,0,0,0,0.018272
2018/06/23 02:30:00.011,n,261,5.04,4.32,6.48,11.5,76.3,1025.52,0,0,0,0,0.021744
2018/06/23 02:31:00.009,n,101,2.52,1.8,4.32,11.5,76.4,1025.52,0,0,0,0,0.020905
2018/06/23 02:32:00.005,n,102,2.88,1.44,5.04,11.5,76.7,1025.52,0,0,0,0,0.020027
2018/06/23 02:33:00.002,n,68,2.88,2.52,3.24,11.5,76.6,1025.52,0,0,0,0,0.020027
2018/06/23 02:34:00.000,n,189,1.08,0.36,1.44,11.5,76.3,1025.52,0,0,0,0,0.020905
2018/06/23 02:35:00.000,n,147,7.56,7.2,8.28,11.5,76.4,1025.52,0,0,0,0,0.01915
2018/06/23 02:36:00.000,n,162,3.24,2.16,3.96,11.5,76.3,1025.52,0,0,0,0,0.031357
2018/06/23 02:37:00.003,n,182,4.32,2.16,7.2,11.5,76.4,1025.52,0,0,0,0,0.033112
2018/06/23 02:38:00.001,n,159,2.88,2.16,3.96,11.4,76.6,1025.52,0,0,0,0,0.036545
2018/06/23 02:39:00.000,n,165,5.4,3.96,6.48,11.4,76.6,1025.42,0,0,0,0,0.028763
2018/06/23 02:40:00.011,n,145,1.8,1.08,2.52,11.4,76.6,1025.52,0,0,0,0,0.030479
2018/06/23 02:41:00.009,n,102,2.88,0.72,3.96,11.4,77,1025.42,0,0,0,0,0.030479
2018/06/23 02:42:00.005,n,104,3.6,2.52,5.04,11.4,77,1025.42,0,0,0,0,0.030479
2018/06/23 02:43:00.000,n,137,4.32,3.24,5.04,11.4,77,1025.42,0,0,0,0,0.029602
2018/06/23 02:44:00.000,n,145,1.8,1.08,2.52,11.4,76.9,1025.42,0,0,0,0,0.030479
2018/06/23 02:45:00.000,n,127,1.8,0.72,1.8,11.4,76.9,1025.42,0,0,0,0,0.028763
2018/06/23 02:46:00.000,n,160,6.48,5.76,6.84,11.4,76.9,1025.42,0,0,0,0,0.030479
2018/06/23 02:47:00.007,n,231,1.44,0.36,2.52,11.3,76.9,1025.42,0,0,0,0,0.027847
2018/06/23 02:48:00.004,n,142,4.32,4.32,5.04,11.3,76.8,1025.52,0,0,0,0,0.027008
2018/06/23 02:49:00.001,n,158,6.48,5.76,7.56,11.3,77,1025.52,0,0,0,0,0.033951
2018/06/23 02:50:00.014,n,161,4.32,2.88,5.4,11.2,77.1,1025.52,0,0,0,0,0.028763
2018/06/23 02:51:00.011,n,165,6.48,5.76,7.92,11.2,77.4,1025.52,0,0,0,0,0.029602
2018/06/23 02:52:00.000,n,151,9,8.64,9.36,11.2,77.5,1025.42,0,0,0,0,0.027847
2018/06/23 02:53:00.000,n,172,7.92,6.12,9.72,11.1,77.6,1025.42,0,0,0,0,0.027008
2018/06/23 02:54:00.004,n,163,7.2,6.48,8.28,11.1,77.7,1025.42,0,0,0,0,0.027847
2018/06/23 02:55:00.001,n,167,9,7.92,9.72,11.1,77.8,1025.42,0,0,0,0,0.027008
2018/06/23 02:56:00.000,n,185,8.64,7.56,10.08,11.1,77.9,1025.42,0,0,0,0,0.026131
2018/06/23 02:57:00.000,n,148,5.04,2.52,6.84,11.1,77.7,1025.42,0,0,0,0,0.028763
2018/06/23 02:58:00.009,n,166,3.96,2.88,6.84,11.1,77.8,1025.42,0,0,0,0,0.022621
2018/06/23 02:59:00.006,n,177,9,7.92,9.72,11.1,77.5,1025.42,0,0,0,0,0.027008
2018/06/23 03:00:00.003,n,176,7.56,5.04,10.8,11.1,77.2,1025.42,0,0,0,0,0.026131
2018/06/23 03:01:00.001,n,143,3.96,1.44,5.4,11.1,77.2,1025.42,0,0,0,0,0.027008
2018/06/23 03:02:00.000,n,175,6.48,6.12,7.92,11.1,77.2,1025.42,0,0,0,0,0.032196
2018/06/23 03:03:00.000,n,178,8.28,4.32,9.72,11.1,77,1025.42,0,0,0,0,0.026131
2018/06/23 03:04:00.000,n,154,4.68,3.6,6.48,11.1,77,1025.42,0,0,0,0,0.025253
2018/06/23 03:05:00.005,n,159,8.28,7.56,9,11.1,76.9,1025.42,0,0,0,0,0.024376
2018/06/23 03:06:00.002,n,216,2.16,1.44,3.6,11.1,76.7,1025.42,0,0,0,0,0.025253
2018/06/23 03:07:00.000,n,158,5.76,3.24,7.2,11.1,76.7,1025.42,0,0,0,0,0.024376
2018/06/23 03:08:00.012,n,194,6.48,5.04,7.92,11.1,76.6,1025.42,0,0,0,0,0.025253
2018/06/23 03:09:00.010,n,167,5.76,3.96,6.84,11.1,76.6,1025.42,0,0,0,0,0.021782
2018/06/23 03:10:00.000,n,247,1.08,0.36,1.8,11.1,76.7,1025.42,0,0,0,0,0.025253
2018/06/23 03:11:00.000,n,137,1.08,0.36,2.52,11.1,76.7,1025.42,0,0,0,0,0.022621
2018/06/23 03:12:00.000,n,20,2.52,1.8,3.6,11.1,76.9,1025.42,0,0,0,0,0.025253
2018/06/23 03:13:00.000,n,128,2.52,1.8,2.88,11.2,76.6,1025.42,0,0,0,0,0.024376
2018/06/23 03:14:00.000,n,151,3.6,2.16,5.4,11.1,76.5,1025.42,0,0,0,0,0.023499
2018/06/23 03:15:00.008,n,155,5.76,5.4,6.12,11.1,76.3,1025.42,0,0,0,0,0.024376
2018/06/23 03:16:00.005,n,145,3.96,3.6,4.68,11.1,76.5,1025.42,0,0,0,0,0.021782
2018/06/23 03:17:00.002,n,170,10.08,9,10.8,11,76.6,1025.42,0,0,0,0,0.022621
2018/06/23 03:18:00.015,n,169,3.24,2.52,4.32,11,76.8,1025.42,0,0,0,0,0.025253
2018/06/23 03:19:00.000,n,140,4.32,2.52,5.04,11,76.9,1025.42,0,0,0,0,0.022621
2018/06/23 03:20:00.000,n,140,3.24,3.24,3.96,11,76.9,1025.42,0,0,0,0,0.024376
2018/06/23 03:21:00.000,n,169,4.32,3.6,5.4,11,77,1025.42,0,0,0,0,0.023499
2018/06/23 03:22:00.004,n,161,8.64,7.92,9.72,11,76.9,1025.42,0,0,0,0,0.025253
2018/06/23 03:23:00.002,n,164,8.28,7.56,9.36,11,77,1025.42,0,0,0,0,0.021782
2018/06/23 03:24:00.000,n,262,0.36,0,1.08,11,77,1025.32,0,0,0,0,0.020905
2018/06/23 03:25:00.011,n,230,1.44,0.36,1.8,11,77.4,1025.32,0,0,0,0,0.020027
2018/06/23 03:26:00.009,n,40,2.52,1.8,3.24,11,77.1,1025.32,0,0,0,0,0.021782
2018/06/23 03:27:00.005,n,88,1.44,0.36,2.88,11,76.8,1025.32,0,0,0,0,0.020027
2018/06/23 03:28:00.000,n,137,5.4,3.96,6.84,11,76.7,1025.32,0,0,0,0,0.01915
2018/06/23 03:29:00.000,n,147,4.32,3.96,5.04,11,76.6,1025.42,0,0,0,0,0.021782
2018/06/23 03:30:00.000,n,154,1.8,1.08,3.24,10.9,76.8,1025.42,0,0,0,0,0.026093
2018/06/23 03:31:00.006,n,94,1.8,0.72,3.24,10.9,76.9,1025.42,0,0,0,0,0.031357
2018/06/23 03:32:00.005,n,168,4.68,3.6,5.4,10.9,76.9,1025.42,0,0,0,0,0.031357
2018/06/23 03:33:00.002,n,167,8.64,7.56,9.36,10.9,77,1025.32,0,0,0,0,0.027847
2018/06/23 03:34:00.000,n,199,2.88,1.8,3.24,10.9,77,1025.32,0,0,0,0,0.027847
2018/06/23 03:35:00.011,n,158,4.68,2.52,5.4,10.9,77.1,1025.32,0,0,0,0,0.029602
2018/06/23 03:36:00.008,n,153,5.4,4.32,6.12,10.9,77.2,1025.32,0,0,0,0,0.029602
2018/06/23 03:37:00.000,n,164,6.12,5.76,6.84,10.9,77,1025.32,0,0,0,0,0.026093
2018/06/23 03:38:00.002,n,152,6.84,6.48,7.56,10.8,77.1,1025.32,0,0,0,0,0.030479
2018/06/23 03:39:00.000,n,152,5.76,5.4,6.48,10.8,77.2,1025.32,0,0,0,0,0.026093
2018/06/23 03:40:00.000,n,156,7.92,6.84,8.64,10.8,77.3,1025.32,0,0,0,0,0.026093
2018/06/23 03:41:00.000,n,181,6.48,3.96,8.28,10.8,77.3,1025.32,0,0,0,0,0.025253
2018/06/23 03:42:00.006,n,209,2.88,1.44,5.4,10.8,77.4,1025.32,0,0,0,0,0.027847
2018/06/23 03:43:00.004,n,276,4.68,3.24,5.76,10.8,77.6,1025.32,0,0,0,0,0.027008
2018/06/23 03:44:00.001,n,233,1.8,0.72,3.24,10.8,77.5,1025.32,0,0,0,0,0.027008
2018/06/23 03:45:00.014,n,116,5.04,4.32,5.76,10.8,77.6,1025.32,0,0,0,0,0.028725
2018/06/23 03:46:00.000,n,139,2.88,1.44,3.96,10.8,77.5,1025.32,0,0,0,0,0.027847
2018/06/23 03:47:00.000,n,149,3.96,3.24,4.32,10.8,77.6,1025.32,0,0,0,0,0.024376
2018/06/23 03:48:00.000,n,130,3.96,3.24,5.04,10.8,77.4,1025.32,0,0,0,0,0.025253
2018/06/23 03:49:00.002,n,180,1.08,0.36,1.44,10.8,77.4,1025.32,0,0,0,0,0.028725
2018/06/23 03:50:00.000,n,330,2.16,0.36,3.24,10.8,77.4,1025.32,0,0,0,0,0.026093
2018/06/23 03:51:00.000,n,175,3.6,2.52,5.76,10.7,77.4,1025.32,0,0,0,0,0.023499
2018/06/23 03:52:00.009,n,139,6.12,5.04,7.2,10.7,77.5,1025.32,0,0,0,0,0.026093
2018/06/23 03:53:00.006,n,167,6.84,5.76,7.56,10.7,77.6,1025.32,0,0,0,0,0.020027
2018/06/23 03:54:00.003,n,192,7.56,6.48,9.72,10.7,77.6,1025.32,0,0,0,0,0.025253
2018/06/23 03:55:00.000,n,193,1.08,0.72,1.8,10.7,78,1025.32,0,0,0,0,0.026093
2018/06/23 03:56:00.000,n,197,1.44,0.36,2.88,10.7,77.9,1025.32,0,0,0,0,0.024376
2018/06/23 03:57:00.000,n,147,5.04,1.44,7.2,10.7,77.5,1025.32,0,0,0,0,0.027008
2018/06/23 03:58:00.007,n,173,10.08,7.56,12.96,10.7,77.4,1025.32,0,0,0,0,0.020866
2018/06/23 03:59:00.004,n,162,9.72,6.48,12.24,10.7,77.4,1025.32,0,0,0,0,0.027847
2018/06/23 04:00:00.001,n,162,8.28,5.4,12.24,10.6,77.3,1025.32,0,0,0,0,0.020027
2018/06/23 04:01:00.000,n,175,8.64,8.28,10.08,10.6,77.4,1025.32,0,0,0,0,0.021744
2018/06/23 04:02:00.011,n,179,6.84,5.4,8.28,10.5,77.6,1025.32,0,0,0,0,0.020027
2018/06/23 04:03:00.008,n,189,9.72,7.56,11.16,10.5,77.9,1025.22,0,0,0,0,0.025253
2018/06/23 04:04:00.000,n,254,2.16,1.08,3.24,10.5,78.1,1025.22,0,0,0,0,0.015678
2018/06/23 04:05:00.000,n,173,10.8,7.56,14.04,10.5,78.2,1025.12,0,0,0,0,0.027008
2018/06/23 04:06:00.000,n,163,10.08,8.64,12.6,10.5,78.2,1025.22,0,0,0,0,0.028763
2018/06/23 04:07:00.000,n,142,9.36,8.64,10.08,10.5,78,1025.22,0,0,0,0,0.038338
2018/06/23 04:08:00.006,n,168,8.64,7.56,11.88,10.4,78,1025.22,0,0,0,0,0.030479
2018/06/23 04:09:00.004,n,175,10.440002,7.56,11.88,10.4,78.1,1025.22,0,0,0,0,0.033112
2018/06/23 04:10:00.000,n,158,6.84,5.76,7.56,10.4,78.1,1025.22,0,0,0,0,0.031395
2018/06/23 04:11:00.013,n,172,11.52,9,12.6,10.4,78.2,1025.22,0,0,0,0,0.030479
2018/06/23 04:12:00.010,n,159,12.96,10.08,14.4,10.3,78.3,1025.22,0,0,0,0,0.027885
2018/06/23 04:13:00.000,n,184,9,7.92,10.440002,10.3,78.3,1025.22,0,0,0,0,0.034828
2018/06/23 04:14:00.000,n,172,5.4,2.16,7.56,10.3,78.4,1025.22,0,0,0,0,0.026131
2018/06/23 04:15:00.001,n,180,7.2,6.48,7.92,10.3,78.4,1025.32,0,0,0,0,0.026131
2018/06/23 04:16:00.000,n,190,5.04,0.36,8.64,10.3,78.3,1025.32,0,0,0,0,0.027008
2018/06/23 04:17:00.000,n,164,9.36,8.28,10.440002,10.3,78.4,1025.22,0,0,0,0,0.027885
2018/06/23 04:18:00.009,n,146,9.36,8.28,12.24,10.3,78.3,1025.22,0,0,0,0,0.028763
2018/06/23 04:19:00.006,n,169,6.12,2.88,10.8,10.3,78.2,1025.22,0,0,0,0,0.032272
2018/06/23 04:20:00.003,n,338,1.44,0.72,2.88,10.3,78.1,1025.22,0,0,0,0,0.02964
2018/06/23 04:21:00.001,n,158,5.76,4.68,6.84,10.3,78.2,1025.22,0,0,0,0,0.02964
2018/06/23 04:22:00.000,n,158,2.88,2.16,3.6,10.3,78.3,1025.22,0,0,0,0,0.027885
2018/06/23 04:23:00.000,n,260,0.72,0.36,0.72,10.3,78.2,1025.22,0,0,0,0,0.024414
2018/06/23 04:24:00.000,n,71,1.8,1.8,2.52,10.3,78.5,1025.22,0,0,0,0,0.026131
2018/06/23 04:25:00.005,n,125,1.44,1.08,2.16,10.3,78.6,1025.32,0,0,0,0,0.027008
2018/06/23 04:26:00.003,n,176,9,7.92,10.440002,10.4,78.3,1025.32,0,0,0,0,0.033112
2018/06/23 04:27:00.000,n,137,7.56,4.68,10.8,10.4,78,1025.32,0,0,0,0,0.025291
2018/06/23 04:28:00.000,n,286,3.6,2.16,3.96,10.3,78,1025.32,0,0,0,0,0.032272
2018/06/23 04:29:00.010,n,137,6.84,5.76,8.64,10.3,78.1,1025.32,0,0,0,0,0.021782
2018/06/23 04:30:00.008,n,248,4.68,4.32,5.4,10.3,78.2,1025.32,0,0,0,0,0.027008
2018/06/23 04:31:00.000,n,9,1.44,0.36,2.88,10.3,78.1,1025.32,0,0,0,0,0.024414
2018/06/23 04:32:00.002,n,259,1.8,1.08,2.52,10.3,78.2,1025.32,0,0,0,0,0.022659
2018/06/23 04:33:00.000,n,100,1.44,0.72,1.8,10.3,78.2,1025.32,0,0,0,0,0.028763
2018/06/23 04:34:00.000,n,174,6.12,5.76,6.84,10.3,78,1025.32,0,0,0,0,0.020943
2018/06/23 04:35:00.000,n,119,4.32,3.24,5.04,10.3,78.1,1025.32,0,0,0,0,0.024414
2018/06/23 04:36:00.006,n,357,0.72,0.72,1.08,10.3,78,1025.32,0,0,0,0,0.022659
2018/06/23 04:37:00.003,n,130,3.6,1.44,4.32,10.3,78.2,1025.32,0,0,0,0,0.026131
2018/06/23 04:38:00.000,n,150,5.04,4.68,5.4,10.3,77.9,1025.42,0,0,0,0,0.025291
2018/06/23 04:39:00.014,n,141,6.84,6.48,7.2,10.2,77.9,1025.42,0,0,0,0,0.024414
2018/06/23 04:40:00.000,n,174,8.64,7.2,11.52,10.2,77.6,1025.42,0,0,0,0,0.028763
2018/06/23 04:41:00.000,n,192,7.92,6.12,11.16,10.1,77.8,1025.42,0,0,0,0,0.027885
2018/06/23 04:42:00.000,n,179,9.72,9.36,10.08,10.1,78,1025.42,0,0,0,0,0.020943
2018/06/23 04:43:00.004,n,196,6.12,4.68,7.56,10.1,78.2,1025.42,0,0,0,0,0.023537
2018/06/23 04:44:00.001,n,193,7.56,5.76,9,10.1,78.2,1025.42,0,0,0,0,0.027885
2018/06/23 04:45:00.000,n,183,10.8,9.36,11.88,10,78.3,1025.42,0,0,0,0,0.030479
2018/06/23 04:46:00.008,n,147,5.04,4.68,5.4,10,78.4,1025.42,0,0,0,0,0.031357
2018/06/23 04:47:00.006,n,98,1.8,1.08,2.88,10,78.4,1025.52,0,0,0,0,0.033073
2018/06/23 04:48:00.004,n,239,1.44,0.72,1.8,10,78.4,1025.52,0,0,0,0,0.031357
2018/06/23 04:49:00.001,n,131,6.12,4.68,7.56,10,78.3,1025.52,0,0,0,0,0.033073
2018/06/23 04:50:00.000,n,189,2.52,1.08,5.76,10,78.4,1025.52,0,0,0,0,0.027008
2018/06/23 04:51:00.000,n,212,3.24,2.16,3.96,10,78.4,1025.42,0,0,0,0,0.037422
2018/06/23 04:52:00.000,n,159,5.04,4.32,5.76,10,78.3,1025.42,0,0,0,0,0.028725
2018/06/23 04:53:00.007,n,148,3.24,1.8,6.12,10,78.3,1025.42,0,0,0,0,0.027847
2018/06/23 04:54:00.004,n,209,5.04,4.32,6.48,10,78.2,1025.42,0,0,0,0,0.027847
2018/06/23 04:55:00.001,n,88,2.16,0.72,2.88,10,78.3,1025.42,0,0,0,0,0.034828